#timestamp,LO_Frequency,Hit,StdDev 
1659916815.3,286047002.7,N
1659916835.1,286047002.6,N
1659916855.9,286047002.4,N
1659916875.7,286047000.1,N
1659916895.5,286046999.0,N
1659916915.4,286046999.8,N
1659916935.2,286046998.6,N
1659916955.1,286047001.1,N
1659916956.0,286047001.1,N
1659916975.8,286047002.6,N
1659916995.6,286047002.7,N
1659917015.5,286047002.7,N
1659917035.3,286047002.8,N
1659917055.1,286047000.1,N
1659917075.9,286047002.4,N
1659917095.7,286047001.5,N
1659917115.6,286047000.5,N
1659917135.4,286046999.8,N
1659917155.2,286047000.2,N
1659917175.1,286047001.1,N
1659917176.0,286047001.1,N
1659917195.8,286047001.0,N
1659917215.7,286047004.4,N
1659917235.5,286047005.5,Y
1659917255.3,286047001.7,P
1659917275.2,286047001.7,P
1659917295.0,286047001.9,P
1659917295.9,286047001.9,Y
1659917315.8,286047001.1,P
1659917335.6,286047000.2,N
1659917355.4,286047000.9,N
1659917375.3,286047000.0,N
1659917395.1,286046999.9,N
1659917415.8,286046999.8,N
1659917435.7,286047002.8,Y
1659917455.5,286047002.6,P
1659917475.4,286047000.6,N
1659917495.2,286047000.0,N
1659917515.0,286046999.7,N
1659917515.9,286046999.7,N
1659917535.8,286047002.5,N
1659917555.6,286047002.7,N
1659917575.4,286047002.6,N
1659917595.3,286047002.2,N
1659917615.1,286047002.6,N
1659917635.9,286047002.5,N
1659917655.7,286046998.6,N
1659917675.5,286046997.4,N
1659917695.4,286046997.2,N
1659917715.2,286046994.9,N
1659917735.0,286046995.7,N
1659917735.9,286046995.7,N
1659917755.8,286046997.9,N
1659917775.6,286046997.0,N
1659917795.5,286046996.9,N
1659917815.3,286046999.5,N
1659917835.1,286046999.2,N
1659917855.9,286047000.2,N
1659917875.7,286046998.6,N
1659917895.5,286047000.8,N
1659917915.4,286047000.7,N
1659917935.2,286047000.4,N
1659917955.1,286046998.9,N
1659917956.0,286046998.9,N
1659917975.8,286046997.2,N
1659917995.6,286046999.0,N
1659918015.5,286046997.5,N
1659918035.3,286046999.9,N
1659918055.1,286047000.0,N
1659918075.9,286046998.3,N
1659918095.7,286047000.7,N
1659918115.6,286047002.8,N
1659918135.4,286047002.4,N
1659918155.2,286047000.2,N
1659918175.1,286047002.8,N
1659918176.0,286047002.8,N
1659918195.8,286047002.4,N
1659918215.6,286046999.8,N
1659918235.5,286047002.7,N
1659918255.3,286047000.6,N
1659918275.2,286047000.9,N
1659918295.9,286047000.4,N
1659918315.7,286046998.2,N
1659918335.6,286046996.5,N
1659918355.4,286046998.8,N
1659918375.2,286046998.1,N
1659918395.1,286047001.1,N
1659918396.0,286047001.1,N
1659918415.8,286047002.4,N
1659918435.7,286047001.8,N
1659918455.5,286047002.5,N
1659918475.3,286047002.7,N
1659918495.2,286047002.1,N
1659918515.0,286047000.2,N
1659918515.9,286047000.2,N
1659918535.7,286047002.4,N
1659918555.6,286046999.8,N
1659918575.4,286046998.6,N
1659918595.3,286046999.4,N
1659918615.1,286047000.6,N
1659918616.0,286047000.6,N
1659918635.8,286046999.7,N
1659918655.7,286046998.3,N
1659918675.5,286046998.1,N
1659918695.3,286047000.2,N
1659918715.2,286047000.5,N
1659918735.0,286047000.9,N
1659918735.9,286047000.9,N
1659918755.8,286046998.8,N
1659918775.6,286046999.1,N
1659918795.4,286046996.8,N
1659918815.3,286046999.0,N
1659918835.1,286046999.4,N
1659918855.8,286047000.8,N
1659918875.7,286047000.2,N
1659918895.5,286047001.1,N
1659918915.4,286047001.2,N
1659918935.2,286046999.2,N
1659918955.0,286046997.0,N
1659918955.9,286046997.0,N
1659918975.8,286046999.1,N
1659918995.6,286046998.3,N
1659919015.4,286047001.2,N
1659919035.3,286046998.2,N
1659919055.1,286047000.3,N
1659919075.9,286046998.6,N
1659919095.7,286047001.1,N
1659919115.5,286046999.4,N
1659919135.4,286047001.0,N
1659919155.2,286046999.4,N
1659919175.0,286046998.6,N
1659919175.9,286046998.6,N
1659919195.8,286046999.0,N
1659919215.6,286046998.3,N
1659919235.5,286047000.6,N
1659919255.3,286047001.9,N
1659919275.1,286047001.5,N
1659919295.9,286047000.1,N
1659919315.7,286046999.0,N
1659919335.5,286047001.1,N
1659919355.4,286046998.3,N
1659919375.2,286047002.7,N
1659919395.0,286047001.6,N
1659919396.0,286047001.6,N
1659919415.8,286047000.0,N
1659919435.6,286046999.7,N
1659919455.5,286047002.0,N
1659919475.3,286047001.1,N
1659919495.1,286047000.1,N
1659919515.9,286046998.7,N
1659919535.7,286046999.4,N
1659919555.5,286047000.4,N
1659919575.4,286047002.5,N
1659919595.2,286047000.0,N
1659919615.1,286046998.5,N
1659919616.0,286046998.5,N
1659919635.8,286047001.2,N
1659919655.6,286047000.7,N
1659919675.5,286046999.9,N
1659919695.3,286046998.2,N
1659919715.1,286046998.3,N
1659919735.9,286047001.0,N
1659919755.7,286047000.9,N
1659919775.6,286047002.7,N
1659919795.4,286047001.6,N
1659919815.2,286047004.1,N
1659919835.1,286047002.5,N
1659919836.0,286047002.5,N
1659919855.8,286047003.9,N
1659919875.6,286047003.4,N
1659919895.5,286047003.4,N
1659919915.3,286047005.9,Y
1659919935.2,286047004.0,P
1659919955.0,286047005.9,P
1659919955.9,286047005.9,N
1659919975.7,286047004.4,N
1659919995.6,286047002.0,N
1659920015.4,286047003.9,N
1659920035.3,286047000.2,N
1659920055.1,286047002.7,N
1659920056.0,286047002.7,N
1659920075.8,286047002.3,N
1659920095.7,286046999.8,N
1659920115.5,286047002.7,N
1659920135.4,286046998.3,N
1659920155.2,286047000.6,N
1659920175.0,286046999.0,N
1659920175.9,286046999.0,N
1659920195.8,286046999.3,N
1659920215.6,286046999.0,N
1659920235.4,286046997.0,N
1659920255.3,286047000.5,N
1659920275.1,286047000.6,N
1659920295.9,286047000.3,N
1659920315.7,286047000.0,N
1659920335.5,286047000.0,N
1659920355.4,286047001.2,N
1659920375.2,286046998.1,N
1659920395.0,286047001.1,N
1659920396.0,286047001.1,N
